This is the latest recevied weather packets stored in our database for station/object N3FYI-5. If no packets are shown the sender has not sent any weather packets the latest 10 day(s).
| Time | Temp. | Humidity | Pressure | Rain* | Wind** | Luminosity | Snow |
|---|---|---|---|---|---|---|---|
| 1777669436 | 5° C | 84% | 1021.7 hPa | 0.76 mm | - | - | - |
| 1777668956 | 5° C | 84% | 1021.6 hPa | 0.76 mm | - | - | - |
| 1777668476 | 5° C | 83% | 1021.6 hPa | 1.02 mm | - | - | - |
| 1777668000 | 5° C | 85% | 1021.6 hPa | 0.76 mm | - | - | - |
| 1777667516 | 5° C | 85% | 1021.8 hPa | 0.76 mm | - | - | - |
| 1777667039 | 5.56° C | 84% | 1021.7 hPa | 0.76 mm | - | - | - |
| 1777666556 | 5° C | 84% | 1021.9 hPa | 1.02 mm | - | - | - |
| 1777666077 | 5° C | 85% | 1021.8 hPa | 1.27 mm | - | - | - |
| 1777665598 | 5° C | 86% | 1021.9 hPa | 1.02 mm | - | - | - |
| 1777665116 | 5.56° C | 86% | 1021.9 hPa | 1.27 mm | - | - | - |
| 1777664644 | 5.56° C | 86% | 1022 hPa | 1.02 mm | - | - | - |
| 1777664156 | 5.56° C | 86% | 1022.1 hPa | 1.02 mm | - | - | - |
| 1777663676 | 5.56° C | 86% | 1022.1 hPa | 1.02 mm | - | - | - |
| 1777663196 | 6.11° C | 85% | 1022.1 hPa | 0.76 mm | - | - | - |
| 1777662716 | 6.11° C | 84% | 1022.2 hPa | 0.51 mm | - | - | - |
| 1777662236 | 6.67° C | 81% | 1022.2 hPa | 0.25 mm | - | - | - |
| 1777661756 | 7.22° C | 75% | 1022.3 hPa | 0 mm | - | - | - |
| 1777661275 | 7.78° C | 71% | 1022.3 hPa | 0 mm | - | - | - |
| 1777660795 | 8.33° C | 67% | 1022.3 hPa | 0 mm | - | - | - |
| 1777660315 | 8.33° C | 64% | 1022.2 hPa | 0 mm | - | - | - |
| 1777659837 | 8.89° C | 64% | 1022.1 hPa | 0 mm | - | - | - |
| 1777659355 | 8.89° C | 63% | 1022 hPa | 0 mm | - | - | - |
| 1777658625 | 8.89° C | 61% | 1022 hPa | 0 mm | - | - | - |
| 1777658145 | 9.44° C | 61% | 1022.1 hPa | 0 mm | - | - | - |
| 1777657667 | 9.44° C | 60% | 1022.2 hPa | 0 mm | - | - | - |
* Rain latest hour (hover to see other rain measurements)
** Current wind speed in m/s (hover to see current wind gust speed)